Time,TemperatureF,DewpointF,PressureIn,WindDirection,WindDirectionDegrees,WindSpeedMPH,WindSpeedGustMPH,Humidity,HourlyPrecipIn,Conditions,Clouds,dailyrainin,SoftwareType,DateUTC
2013-08-11 00:02:00,57.0,44.0,29.90,SSW,194,2.0,3.0,62,0.00,,,0.05,,2013-08-11 07:02:00,
2013-08-11 00:13:00,57.0,45.0,29.90,SW,224,2.0,3.0,65,0.00,,,0.05,,2013-08-11 07:13:00,
2013-08-11 00:33:00,57.0,45.0,29.90,SSW,198,2.0,3.0,65,0.00,,,0.05,,2013-08-11 07:33:00,
2013-08-11 00:43:00,57.0,44.0,29.90,SSW,202,2.0,2.0,62,0.00,,,0.05,,2013-08-11 07:43:00,
2013-08-11 00:53:00,56.0,42.0,29.90,South,185,2.0,3.0,60,0.00,,,0.05,,2013-08-11 07:53:00,
2013-08-11 01:02:00,56.0,43.0,29.90,SSW,208,2.0,5.0,61,0.00,,,0.05,,2013-08-11 08:02:00,
2013-08-11 01:12:00,56.0,43.0,29.90,SSW,208,2.0,5.0,61,0.00,,,0.05,,2013-08-11 08:12:00,
2013-08-11 01:34:00,56.0,43.0,29.90,SSW,194,2.0,3.0,61,0.00,,,0.05,,2013-08-11 08:34:00,
2013-08-11 01:44:00,56.0,43.0,29.90,SSE,167,2.0,3.0,62,0.00,,,0.05,,2013-08-11 08:44:00,
2013-08-11 01:53:00,56.0,43.0,29.90,SSE,167,2.0,3.0,62,0.00,,,0.05,,2013-08-11 08:53:00,
2013-08-11 02:03:00,56.0,43.0,29.90,SSW,193,2.0,3.0,61,0.00,,,0.05,,2013-08-11 09:03:00,
2013-08-11 02:33:00,55.0,42.0,29.90,South,180,2.0,3.0,61,0.00,,,0.05,,2013-08-11 09:33:00,
2013-08-11 02:54:00,55.0,42.0,29.90,South,171,3.0,3.0,61,0.00,,,0.05,,2013-08-11 09:54:00,
2013-08-11 03:02:00,55.0,42.0,29.90,SSW,208,1.0,3.0,61,0.00,,,0.05,,2013-08-11 10:02:00,
2013-08-11 03:13:00,55.0,42.0,29.90,SSW,208,1.0,3.0,61,0.00,,,0.05,,2013-08-11 10:13:00,
2013-08-11 03:33:00,54.0,41.0,29.90,SE,125,2.0,2.0,61,0.00,,,0.05,,2013-08-11 10:33:00,
2013-08-11 03:43:00,53.0,40.0,29.90,SE,129,2.0,3.0,62,0.00,,,0.05,,2013-08-11 10:43:00,
2013-08-11 03:53:00,52.0,39.0,29.93,SSW,202,2.0,3.0,62,0.00,,,0.05,,2013-08-11 10:53:00,
2013-08-11 04:02:00,53.0,42.0,29.93,SSW,197,1.0,2.0,66,0.00,,,0.05,,2013-08-11 11:02:00,
2013-08-11 04:12:00,53.0,42.0,29.93,SSW,197,1.0,2.0,66,0.00,,,0.05,,2013-08-11 11:12:00,
2013-08-11 04:22:00,53.0,41.0,29.93,South,185,0.0,1.0,64,0.00,,,0.05,,2013-08-11 11:22:00,
2013-08-11 04:33:00,53.0,42.0,29.93,SSE,147,2.0,2.0,65,0.00,,,0.05,,2013-08-11 11:33:00,
2013-08-11 05:04:00,52.0,41.0,29.93,SSE,158,3.0,5.0,67,0.00,,,0.05,,2013-08-11 12:04:00,
2013-08-11 05:12:00,53.0,44.0,29.93,SW,235,2.0,6.0,71,0.00,,,0.05,,2013-08-11 12:12:00,
2013-08-11 05:22:00,53.0,44.0,29.93,SW,235,2.0,6.0,71,0.00,,,0.05,,2013-08-11 12:22:00,
2013-08-11 05:43:00,51.0,40.0,29.93,SE,137,0.0,0.0,66,0.00,,,0.05,,2013-08-11 12:43:00,
2013-08-11 05:52:00,51.0,40.0,29.93,SE,137,0.0,0.0,66,0.00,,,0.05,,2013-08-11 12:52:00,
2013-08-11 06:33:00,50.0,40.0,29.93,SE,142,2.0,3.0,69,0.00,,,0.05,,2013-08-11 13:33:00,
2013-08-11 06:43:00,51.0,42.0,29.93,SSW,193,1.0,2.0,71,0.00,,,0.05,,2013-08-11 13:43:00,
2013-08-11 06:54:00,51.0,42.0,29.93,SSW,193,1.0,2.0,71,0.00,,,0.05,,2013-08-11 13:54:00,
2013-08-11 07:02:00,51.0,42.0,29.93,ESE,121,2.0,2.0,72,0.00,,,0.05,,2013-08-11 14:02:00,
2013-08-11 07:12:00,51.0,42.0,29.93,ESE,121,2.0,2.0,72,0.00,,,0.05,,2013-08-11 14:12:00,
2013-08-11 07:22:00,51.0,42.0,29.93,SE,126,2.0,2.0,72,0.00,,,0.05,,2013-08-11 14:22:00,
2013-08-11 07:32:00,51.0,42.0,29.93,ESE,112,2.0,2.0,72,0.00,,,0.05,,2013-08-11 14:32:00,
2013-08-11 07:44:00,57.0,48.0,29.93,SE,135,0.0,2.0,71,0.00,,,0.05,,2013-08-11 14:44:00,
2013-08-11 07:54:00,57.0,48.0,29.93,SE,135,0.0,2.0,71,0.00,,,0.05,,2013-08-11 14:54:00,
2013-08-11 08:02:00,60.0,48.0,29.93,SSW,202,1.0,2.0,65,0.00,,,0.05,,2013-08-11 15:02:00,
2013-08-11 08:12:00,60.0,48.0,29.93,SSW,202,1.0,2.0,65,0.00,,,0.05,,2013-08-11 15:12:00,
2013-08-11 08:22:00,61.0,48.0,29.93,SE,140,0.0,1.0,63,0.00,,,0.05,,2013-08-11 15:22:00,
2013-08-11 08:33:00,63.0,49.0,29.93,SSE,158,1.0,3.0,61,0.00,,,0.05,,2013-08-11 15:33:00,
2013-08-11 08:44:00,65.0,50.0,29.93,SE,126,1.0,2.0,58,0.00,,,0.05,,2013-08-11 15:44:00,
2013-08-11 08:54:00,65.0,48.0,29.93,SE,142,2.0,3.0,55,0.00,,,0.05,,2013-08-11 15:54:00,
2013-08-11 09:33:00,66.0,46.0,29.93,West,261,2.0,7.0,48,0.00,,,0.05,,2013-08-11 16:33:00,
2013-08-11 09:54:00,64.0,46.0,29.93,West,276,5.0,8.0,52,0.00,,,0.05,,2013-08-11 16:54:00,
2013-08-11 10:03:00,65.0,46.0,29.93,NW,319,5.0,7.0,50,0.00,,,0.05,,2013-08-11 17:03:00,
2013-08-11 10:12:00,65.0,46.0,29.93,NW,319,5.0,7.0,50,0.00,,,0.05,,2013-08-11 17:12:00,
2013-08-11 10:32:00,66.0,44.0,29.93,WNW,291,5.0,7.0,45,0.00,,,0.05,,2013-08-11 17:32:00,
2013-08-11 10:43:00,67.0,44.0,29.93,WNW,284,5.0,8.0,44,0.00,,,0.05,,2013-08-11 17:43:00,
2013-08-11 11:02:00,69.0,44.0,29.93,NW,312,6.0,9.0,41,0.00,,,0.05,,2013-08-11 18:02:00,
2013-08-11 11:22:00,69.0,44.0,29.93,WNW,297,6.0,8.0,40,0.00,,,0.05,,2013-08-11 18:22:00,
2013-08-11 11:36:00,70.0,43.0,29.90,West,268,5.0,8.0,38,0.00,,,0.05,,2013-08-11 18:36:00,
2013-08-11 11:53:00,71.0,43.0,29.90,NW,305,6.0,12.0,36,0.00,,,0.05,,2013-08-11 18:53:00,
2013-08-11 12:03:00,71.0,43.0,29.90,NNW,342,6.0,9.0,36,0.00,,,0.05,,2013-08-11 19:03:00,
2013-08-11 12:32:00,72.0,43.0,29.90,NW,307,5.0,9.0,35,0.00,,,0.05,,2013-08-11 19:32:00,
2013-08-11 12:55:00,73.0,43.0,29.90,WNW,287,5.0,10.0,34,0.00,,,0.05,,2013-08-11 19:55:00,
2013-08-11 13:02:00,73.0,43.0,29.90,WSW,248,7.0,17.0,34,0.00,,,0.05,,2013-08-11 20:02:00,
2013-08-11 13:15:00,74.0,43.0,29.90,West,281,9.0,13.0,33,0.00,,,0.05,,2013-08-11 20:15:00,
2013-08-11 13:33:00,75.0,42.0,29.90,WNW,292,8.0,10.0,31,0.00,,,0.05,,2013-08-11 20:33:00,
2013-08-11 13:44:00,76.0,43.0,29.90,WSW,248,7.0,12.0,31,0.00,,,0.05,,2013-08-11 20:44:00,
2013-08-11 13:53:00,76.0,43.0,29.90,WSW,248,7.0,12.0,31,0.00,,,0.05,,2013-08-11 20:53:00,
2013-08-11 14:02:00,78.0,42.0,29.90,WNW,283,4.0,12.0,28,0.00,,,0.05,,2013-08-11 21:02:00,
2013-08-11 14:22:00,76.0,40.0,29.90,NW,315,8.0,12.0,27,0.00,,,0.05,,2013-08-11 21:22:00,
2013-08-11 14:33:00,76.0,40.0,29.90,NNW,338,5.0,12.0,27,0.00,,,0.05,,2013-08-11 21:33:00,
2013-08-11 14:43:00,75.0,38.0,29.90,West,270,8.0,10.0,26,0.00,,,0.05,,2013-08-11 21:43:00,
2013-08-11 14:53:00,75.0,38.0,29.90,West,270,8.0,10.0,26,0.00,,,0.05,,2013-08-11 21:53:00,
2013-08-11 15:02:00,77.0,38.0,29.87,WNW,297,9.0,13.0,25,0.00,,,0.05,,2013-08-11 22:02:00,
2013-08-11 15:12:00,77.0,37.0,29.87,West,266,9.0,13.0,24,0.00,,,0.05,,2013-08-11 22:12:00,
2013-08-11 15:33:00,78.0,38.0,29.87,West,264,10.0,15.0,24,0.00,,,0.05,,2013-08-11 22:33:00,
2013-08-11 15:43:00,78.0,38.0,29.87,WNW,292,9.0,15.0,24,0.00,,,0.05,,2013-08-11 22:43:00,
2013-08-11 15:53:00,78.0,38.0,29.87,WNW,292,9.0,15.0,24,0.00,,,0.05,,2013-08-11 22:53:00,
2013-08-11 16:02:00,79.0,38.0,29.87,NNW,328,8.0,16.0,23,0.00,,,0.05,,2013-08-11 23:02:00,
2013-08-11 16:32:00,79.0,39.0,29.87,WNW,303,10.0,13.0,24,0.00,,,0.05,,2013-08-11 23:32:00,
2013-08-11 16:43:00,78.0,38.0,29.87,NNW,344,10.0,14.0,24,0.00,,,0.05,,2013-08-11 23:43:00,
2013-08-11 16:54:00,77.0,36.0,29.84,NNW,338,8.0,13.0,23,0.00,,,0.05,,2013-08-11 23:54:00,
2013-08-11 17:33:00,76.0,37.0,29.87,NW,307,6.0,9.0,24,0.00,,,0.05,,2013-08-12 00:33:00,
2013-08-11 17:43:00,77.0,37.0,29.87,WNW,296,4.0,9.0,24,0.00,,,0.05,,2013-08-12 00:43:00,
2013-08-11 17:53:00,77.0,37.0,29.87,WNW,292,6.0,8.0,24,0.00,,,0.05,,2013-08-12 00:53:00,
2013-08-11 18:02:00,75.0,37.0,29.84,NW,307,7.0,10.0,25,0.00,,,0.05,,2013-08-12 01:02:00,
2013-08-11 18:12:00,74.0,36.0,29.84,WNW,292,6.0,9.0,25,0.00,,,0.05,,2013-08-12 01:12:00,
2013-08-11 18:22:00,75.0,38.0,29.84,NW,307,6.0,10.0,26,0.00,,,0.05,,2013-08-12 01:22:00,
2013-08-11 18:43:00,76.0,39.0,29.84,NW,326,5.0,6.0,26,0.00,,,0.05,,2013-08-12 01:43:00,
2013-08-11 18:53:00,75.0,37.0,29.84,NW,316,6.0,10.0,25,0.00,,,0.05,,2013-08-12 01:53:00,
2013-08-11 19:03:00,75.0,37.0,29.84,WNW,285,4.0,8.0,25,0.00,,,0.05,,2013-08-12 02:03:00,
2013-08-11 19:22:00,73.0,36.0,29.84,NW,322,5.0,8.0,26,0.00,,,0.05,,2013-08-12 02:22:00,
2013-08-11 19:52:00,73.0,37.0,29.87,WNW,293,4.0,6.0,27,0.00,,,0.05,,2013-08-12 02:52:00,
2013-08-11 20:33:00,68.0,39.0,29.87,NNW,346,5.0,7.0,34,0.00,,,0.05,,2013-08-12 03:33:00,
2013-08-11 20:43:00,68.0,41.0,29.87,NW,313,7.0,8.0,37,0.00,,,0.05,,2013-08-12 03:43:00,
2013-08-11 20:53:00,67.0,41.0,29.87,WNW,302,5.0,8.0,39,0.00,,,0.05,,2013-08-12 03:53:00,
2013-08-11 21:02:00,66.0,41.0,29.87,NW,304,3.0,8.0,40,0.00,,,0.05,,2013-08-12 04:02:00,
2013-08-11 21:12:00,65.0,42.0,29.87,NNW,327,2.0,5.0,43,0.00,,,0.05,,2013-08-12 04:12:00,
2013-08-11 21:22:00,65.0,42.0,29.87,NNW,327,2.0,5.0,43,0.00,,,0.05,,2013-08-12 04:22:00,
2013-08-11 21:32:00,65.0,42.0,29.90,NW,305,2.0,6.0,43,0.00,,,0.02,,2013-08-12 04:32:00,
2013-08-11 21:43:00,65.0,42.0,29.90,NNW,342,2.0,5.0,43,0.00,,,0.01,,2013-08-12 04:43:00,
2013-08-11 21:52:00,65.0,42.0,29.90,NNW,342,2.0,5.0,43,0.00,,,0.01,,2013-08-12 04:52:00,
2013-08-11 22:02:00,64.0,40.0,29.90,ESE,117,2.0,2.0,41,0.00,,,0.00,,2013-08-12 05:02:00,
2013-08-11 22:11:00,62.0,38.0,29.90,ESE,122,2.0,2.0,41,0.00,,,0.00,,2013-08-12 05:11:00,